When you browse on this site, cookies collect data to enhance your experience and personalize the content and advertising you see.
Visit our Privacy Policy to learn more. By continuing to use the site, you agree to this use of cookies and data.
  • In Hungary
  • List of Countries
  • For 7 days
  • Water Temperature
  • Weather Map
  • News
  • Weather Widgets
  • user-avatar
    Login

    Hourly Weather Gorlovka

    Today, 15 November, Friday

    Time Temperature Precipitation Wind Pressure Humidity
    00:00 +2°C° 0 mm 8 mps 745 mmHg 62%
    01:00 +2°C° 0 mm 8 mps 745 mmHg 63%
    02:00 +2°C° 0 mm 8 mps 745 mmHg 64%
    03:00 +2°C° 0 mm 8 mps 745 mmHg 65%
    04:00 +2°C° 0 mm 8 mps 745 mmHg 66%
    05:00 +2°C° 0 mm 8 mps 744 mmHg 66%
    06:00 +1°C° 0 mm 8 mps 744 mmHg 67%
    07:00 +2°C° 0 mm 8 mps 744 mmHg 65%
    08:00 +2°C° 0 mm 9 mps 745 mmHg 62%
    09:00 +2°C° 0 mm 9 mps 745 mmHg 60%
    10:00 +5°C° 0 mm 9 mps 745 mmHg 55%
    11:00 +6°C° 0 mm 9 mps 745 mmHg 49%
    12:00 +7°C° 0 mm 9 mps 745 mmHg 44%
    13:00 +7°C° 0 mm 9 mps 745 mmHg 43%
    14:00 +8°C° 0 mm 9 mps 745 mmHg 43%
    15:00 +9°C° 0 mm 8 mps 745 mmHg 43%
    16:00 +7°C° 0 mm 8 mps 745 mmHg 47%
    17:00 +6°C° 0 mm 7 mps 745 mmHg 51%
    18:00 +5°C° 0 mm 7 mps 745 mmHg 55%
    19:00 +5°C° 0 mm 7 mps 745 mmHg 58%
    20:00 +4°C° 0 mm 7 mps 746 mmHg 61%
    21:00 +4°C° 0 mm 7 mps 746 mmHg 63%
    22:00 +4°C° 0 mm 6 mps 746 mmHg 66%
    23:00 +3°C° 0 mm 6 mps 746 mmHg 68%

    Tomorrow, 16 November, Saturday

    Time Temperature Precipitation Wind Pressure Humidity
    00:00 +3°C° 0 mm 6 mps 746 mmHg 70%
    01:00 +3°C° 0 mm 6 mps 746 mmHg 70%
    02:00 +2°C° 0 mm 6 mps 746 mmHg 70%
    03:00 +2°C° 0 mm 6 mps 746 mmHg 70%
    04:00 +2°C° 0 mm 6 mps 746 mmHg 72%
    05:00 +1°C° 0 mm 6 mps 746 mmHg 74%
    06:00 +1°C° 0 mm 6 mps 746 mmHg 77%
    07:00 +1°C° 0 mm 6 mps 746 mmHg 77%
    08:00 +1°C° 0 mm 6 mps 746 mmHg 77%
    09:00 +1°C° 0 mm 6 mps 746 mmHg 77%
    10:00 +3°C° 0 mm 6 mps 746 mmHg 71%
    11:00 +4°C° 0 mm 6 mps 746 mmHg 65%
    12:00 +5°C° 0 mm 6 mps 746 mmHg 59%
    13:00 +7°C° 0 mm 6 mps 746 mmHg 57%
    14:00 +8°C° 0 mm 6 mps 746 mmHg 54%
    15:00 +8°C° 0 mm 6 mps 746 mmHg 51%
    16:00 +8°C° 0 mm 5 mps 746 mmHg 55%
    17:00 +7°C° 0 mm 5 mps 746 mmHg 59%
    18:00 +6°C° 0 mm 4 mps 746 mmHg 63%
    19:00 +5°C° 0 mm 4 mps 746 mmHg 65%
    20:00 +5°C° 0 mm 4 mps 746 mmHg 68%
    21:00 +5°C° 0 mm 4 mps 747 mmHg 70%
    22:00 +4°C° 0 mm 4 mps 747 mmHg 73%
    23:00 +4°C° 0 mm 4 mps 747 mmHg 76%

    Day after tomorrow, 17 November, Sunday

    Time Temperature Precipitation Wind Pressure Humidity
    00:00 +3°C° 0 mm 4 mps 747 mmHg 78%
    01:00 +3°C° 0 mm 4 mps 747 mmHg 82%
    02:00 +3°C° 0 mm 4 mps 747 mmHg 85%
    03:00 +1°C° 0 mm 4 mps 747 mmHg 88%
    04:00 +1°C° 0 mm 4 mps 747 mmHg 90%
    05:00 +1°C° 0 mm 4 mps 747 mmHg 91%
    06:00 +1°C° 0 mm 4 mps 746 mmHg 93%
    07:00 +1°C° 0 mm 5 mps 747 mmHg 90%
    08:00 +2°C° 0 mm 5 mps 747 mmHg 88%
    09:00 +2°C° 0 mm 6 mps 747 mmHg 85%
    10:00 +4°C° 0 mm 6 mps 747 mmHg 78%
    11:00 +5°C° 0 mm 6 mps 747 mmHg 70%
    12:00 +7°C° 0 mm 6 mps 747 mmHg 63%
    13:00 +8°C° 0 mm 6 mps 747 mmHg 60%
    14:00 +8°C° 0 mm 5 mps 747 mmHg 57%
    15:00 +9°C° 0 mm 5 mps 747 mmHg 54%
    16:00 +8°C° 0 mm 5 mps 747 mmHg 58%
    17:00 +7°C° 0 mm 5 mps 746 mmHg 61%
    18:00 +6°C° 0 mm 5 mps 746 mmHg 65%
    19:00 +6°C° 0 mm 5 mps 746 mmHg 66%
    20:00 +6°C° 0 mm 5 mps 746 mmHg 67%
    21:00 +5°C° 0 mm 5 mps 746 mmHg 68%
    22:00 +5°C° 0 mm 5 mps 746 mmHg 69%
    23:00 +3°C° 0 mm 5 mps 746 mmHg 70%

    18 November, Monday

    Time Temperature Precipitation Wind Pressure Humidity
    00:00 +4°C° 0 mm 4 mps 746 mmHg 72%
    01:00 +4°C° 0 mm 4 mps 746 mmHg 74%
    02:00 +3°C° 0 mm 4 mps 745 mmHg 77%
    03:00 +3°C° 0 mm 4 mps 745 mmHg 79%
    04:00 +1°C° 0 mm 4 mps 745 mmHg 82%
    05:00 +1°C° 0 mm 4 mps 745 mmHg 84%
    06:00 +1°C° 0 mm 4 mps 745 mmHg 86%
    07:00 +1°C° 0 mm 4 mps 745 mmHg 86%
    08:00 +1°C° 0 mm 4 mps 745 mmHg 85%
    09:00 +2°C° 0 mm 5 mps 745 mmHg 84%
    10:00 +3°C° 0 mm 5 mps 745 mmHg 77%
    11:00 +6°C° 0 mm 5 mps 745 mmHg 69%
    12:00 +7°C° 0 mm 5 mps 745 mmHg 61%
    13:00 +8°C° 0 mm 4 mps 745 mmHg 58%
    14:00 +8°C° 0 mm 4 mps 744 mmHg 55%
    15:00 +10°C° 0 mm 4 mps 744 mmHg 53%
    16:00 +7°C° 0 mm 4 mps 744 mmHg 58%
    17:00 +7°C° 0 mm 3 mps 744 mmHg 63%
    18:00 +5°C° 0 mm 3 mps 744 mmHg 68%
    19:00 +5°C° 0 mm 3 mps 744 mmHg 72%
    20:00 +4°C° 0 mm 3 mps 744 mmHg 76%
    21:00 +4°C° 0 mm 3 mps 744 mmHg 79%
    22:00 +3°C° 0 mm 3 mps 744 mmHg 81%
    23:00 +3°C° 0 mm 3 mps 744 mmHg 83%

    19 November, Tuesday

    Time Temperature Precipitation Wind Pressure Humidity
    00:00 +4°C° 0 mm 2 mps 744 mmHg 86%
    01:00 +3°C° 0 mm 2 mps 744 mmHg 86%
    02:00 +3°C° 0 mm 2 mps 744 mmHg 87%
    03:00 +3°C° 0 mm 2 mps 744 mmHg 87%
    04:00 +3°C° 0 mm 2 mps 744 mmHg 88%
    05:00 +2°C° 0 mm 2 mps 744 mmHg 88%
    06:00 +2°C° 0 mm 2 mps 744 mmHg 89%
    07:00 +3°C° 0 mm 2 mps 744 mmHg 89%
    08:00 +3°C° 0 mm 2 mps 744 mmHg 88%
    09:00 +3°C° 0 mm 2 mps 744 mmHg 88%
    10:00 +5°C° 0 mm 2 mps 744 mmHg 81%
    11:00 +6°C° 0 mm 2 mps 744 mmHg 75%
    12:00 +8°C° 0 mm 3 mps 744 mmHg 68%
    13:00 +8°C° 0 mm 2 mps 744 mmHg 65%
    14:00 +9°C° 0 mm 2 mps 744 mmHg 62%
    15:00 +10°C° 0 mm 2 mps 743 mmHg 60%
    16:00 +8°C° 0 mm 2 mps 743 mmHg 65%
    17:00 +7°C° 0 mm 2 mps 743 mmHg 71%
    18:00 +6°C° 0 mm 2 mps 743 mmHg 77%
    19:00 +5°C° 0 mm 2 mps 743 mmHg 80%
    20:00 +5°C° 0 mm 2 mps 743 mmHg 83%
    21:00 +5°C° 0 mm 2 mps 743 mmHg 86%
    22:00 +4°C° 0 mm 2 mps 743 mmHg 87%
    23:00 +4°C° 0 mm 2 mps 743 mmHg 88%

    20 November, Wednesday

    Time Temperature Precipitation Wind Pressure Humidity
    00:00 +4°C° 0 mm 2 mps 743 mmHg 89%
    01:00 +3°C° 0 mm 2 mps 743 mmHg 90%
    02:00 +3°C° 0 mm 2 mps 743 mmHg 90%
    03:00 +3°C° 0 mm 2 mps 743 mmHg 91%
    04:00 +1°C° 0 mm 3 mps 743 mmHg 91%
    05:00 +1°C° 0 mm 3 mps 743 mmHg 91%
    06:00 +1°C° 0 mm 3 mps 743 mmHg 92%
    07:00 0°C° 0 mm 4 mps 743 mmHg 90%
    08:00 0°C° 0 mm 4 mps 744 mmHg 89%
    09:00 +1°C° 0 mm 4 mps 744 mmHg 87%
    10:00 +2°C° 0 mm 5 mps 744 mmHg 79%
    11:00 +3°C° 0 mm 5 mps 745 mmHg 71%
    12:00 +4°C° 0 mm 6 mps 745 mmHg 63%
    13:00 +4°C° 0 mm 6 mps 745 mmHg 63%
    14:00 +4°C° 0 mm 6 mps 745 mmHg 62%
    15:00 +4°C° 0 mm 6 mps 745 mmHg 61%
    16:00 +3°C° 0 mm 6 mps 745 mmHg 66%
    17:00 +2°C° 0 mm 6 mps 745 mmHg 70%
    18:00 +1°C° 0 mm 6 mps 745 mmHg 75%
    19:00 -1°C° 0 mm 7 mps 746 mmHg 74%
    20:00 -1°C° 0 mm 7 mps 746 mmHg 74%
    21:00 -2°C° 0 mm 7 mps 746 mmHg 73%
    22:00 -3°C° 0 mm 7 mps 746 mmHg 69%
    23:00 -3°C° 0 mm 7 mps 747 mmHg 64%
    Show more